FW6661 Weather Reports


time (UTC)temp
C
wind
direction
speed
KPH
gust
KPH
rain 1hr
cm
rain 24hr
cm
rain mn
cm
humidity
%
barometer
mb
20260504081702 8 0 0.0 0.0 0.00 0.00 0.00 100 992.0
20260504080707 8 0 0.0 0.0 0.00 0.00 0.00 100 992.0
20260504050704 9 0 0.0 0.0 0.00 0.00 0.00 100 992.4
20260504045700 9 0 0.0 0.0 0.00 0.00 0.00 100 992.3
20260504044703 9 0 0.0 0.0 0.00 0.00 0.00 100 992.2
20260504043703 9 0 0.0 0.0 0.00 0.00 0.00 100 992.3
20260504041702 9 0 0.0 0.0 0.00 0.00 0.00 100 992.0
20260504040703 10 0 0.0 0.0 0.00 0.00 0.00 100 991.9
20260504035702 10 0 0.0 0.0 0.00 0.00 0.00 100 992.0
20260504033703 9 0 0.0 0.0 0.00 0.00 0.00 100 991.9
20260504032704 9 0 0.0 0.0 0.00 0.00 0.00 100 991.9
20260504030704 9 0 0.0 0.0 0.00 0.00 0.00 100 992.0
20260504025705 9 0 0.0 0.0 0.00 0.00 0.00 100 991.9
20260504024703 9 0 0.0 0.0 0.00 0.00 0.00 100 991.9
20260504023704 8 0 0.0 0.0 0.00 0.00 0.00 100 992.0
20260504022704 8 0 0.0 0.0 0.00 0.00 0.00 100 991.9
20260504021706 8 0 0.0 0.0 0.00 0.00 0.00 100 991.8
20260504020704 8 0 0.0 0.0 0.00 0.00 0.00 100 991.8
20260504015705 9 0 0.0 0.0 0.00 0.00 0.00 100 991.6
20260504014703 10 0 0.0 0.0 0.00 0.00 0.00 100 991.6
20260504013711 10 0 0.0 0.0 0.00 0.00 0.00 100 991.4
20260504012704 10 0 0.0 0.0 0.00 0.00 0.00 100 991.2
20260504011709 10 0 0.0 0.0 0.00 0.00 0.00 100 991.1
20260504010705 11 0 0.0 0.0 0.00 0.00 0.00 92 991.0
20260504005703 11 0 0.0 0.0 0.00 0.00 0.00 90 991.1
20260504004704 11 0 0.0 0.0 0.00 0.00 0.00 82 991.0
20260504003718 11 0 0.0 0.0 0.00 0.00 0.00 74 990.8
20260504002705 12 0 0.0 0.0 0.00 0.00 0.00 74 990.8
20260504001704 12 0 0.0 0.0 0.00 0.00 0.00 62 990.8
20260504000703 13 0 0.0 0.0 0.00 0.00 0.00 52 990.7
20260503235704 13 0 0.0 0.0 0.00 0.00 0.00 50 990.5
20260503234705 14 0 0.0 0.0 0.00 0.00 0.00 41 990.4
20260503233705 15 0 0.0 0.0 0.00 0.00 0.00 37 990.3
20260503232702 15 0 0.0 0.0 0.00 0.00 0.00 38 990.3
20260503230704 16 90 0.0 0.0 0.00 0.00 0.00 39 990.2
20260503225705 16 0 0.0 0.0 0.00 0.00 0.00 39 990.1
20260503224705 16 0 0.0 0.0 0.00 0.00 0.00 37 990.2
20260503223705 16 225 0.0 1.6 0.00 0.00 0.00 36 990.1
20260503222702 17 0 0.0 0.0 0.00 0.00 0.00 31 990.0
20260503221704 17 0 0.0 0.0 0.00 0.00 0.00 38 990.2
20260503220706 17 45 1.6 1.6 0.00 0.00 0.00 30 990.2
20260503215703 17 0 0.0 0.0 0.00 0.00 0.00 29 990.2
20260503214703 17 135 0.0 0.0 0.00 0.00 0.00 28 990.2
20260503213704 17 113 0.0 0.0 0.00 0.00 0.00 32 990.2
20260503212704 17 153 1.6 1.6 0.00 0.00 0.00 31 990.2
20260503211704 17 90 0.0 0.0 0.00 0.00 0.00 31 990.2
20260503210708 17 135 0.0 0.0 0.00 0.00 0.00 26 990.2
20260503205703 18 93 1.6 1.6 0.00 0.00 0.00 27 990.3
20260503204704 18 40 1.6 1.6 0.00 0.00 0.00 26 990.4
20260503203714 18 251 0.0 1.6 0.00 0.00 0.00 30 990.5
20260503202725 18 52 1.6 3.2 0.00 0.00 0.00 28 990.6
20260503201706 19 203 1.6 3.2 0.00 0.00 0.00 26 990.7
20260503200707 18 316 1.6 1.6 0.00 0.00 0.00 30 991.0
20260503195705 18 61 1.6 1.6 0.00 0.00 0.00 29 991.1
20260503193708 17 173 1.6 1.6 0.00 0.00 0.00 32 991.4
20260503192706 17 180 1.6 1.6 0.00 0.00 0.00 30 991.6
20260503191706 17 45 1.6 1.6 0.00 0.00 0.00 28 991.8
20260503190720 18 7 1.6 1.6 0.00 0.00 0.00 31 992.0
20260503185703 17 169 3.2 4.8 0.00 0.00 0.00 29 992.2
20260503183705 17 254 1.6 3.2 0.00 0.00 0.00 37 992.5
20260503182704 16 70 1.6 1.6 0.00 0.00 0.00 33 992.7
20260503180703 16 108 1.6 3.2 0.00 0.00 0.00 33 992.6
20260503175704 16 180 1.6 1.6 0.00 0.00 0.00 34 992.8
20260503174705 16 174 1.6 1.6 0.00 0.00 0.00 32 993.0
20260503173705 16 131 1.6 1.6 0.00 0.00 0.00 33 993.1
20260503172704 15 100 1.6 1.6 0.00 0.00 0.00 33 993.1
20260503171711 15 328 1.6 1.6 0.00 0.00 0.00 35 993.4
20260503170719 15 156 1.6 1.6 0.00 0.00 0.00 35 993.5
20260503150704 11 81 1.6 3.2 0.00 0.00 0.00 41 995.0
20260503110705 5 0 0.0 0.0 0.00 0.00 0.00 100 994.5